Weather History for New Richmond, WI

Change the Weather History Date:

Sunday, August 11, 2013

  Actual Average (KMSP) Record (KMSP)
Temperature  
Mean Temperature 66 °F 72 °F  
Max Temperature 78 °F 81 °F 97 °F (1947)
Min Temperature 54 °F 63 °F 47 °F (2004)
Degree Days  
Heating Degree Days 0 0  
Month to date heating degree days 0  
Since 1 June heating degree days 49  
Since 1 July heating degree days 5  
Cooling Degree Days 1 7  
Month to date cooling degree days 86  
Year to date cooling degree days 562  
Since 1 June cooling degree days 520  
Growing Degree Days 16 (Base 50)    
Moisture  
Dew Point 57 °F    
Average Humidity 77    
Maximum Humidity 98    
Minimum Humidity 44    
Precipitation  
Precipitation 0.05 in 0.14 in 1.73 in (2007)
Month to date precipitation 1.61  
Year to date precipitation 19.48  
Snow  
Snow 0.00 in 0.00 in 0.00 in ()
Month to date snowfall 0.0  
Since 1 June snowfall 0.0  
Since 1 July snowfall 0.0  
Snow Depth -    
Sea Level Pressure  
Sea Level Pressure 30.07 in    
Wind  
Wind Speed 1 mph (SW)    
Max Wind Speed 7 mph    
Max Gust Speed -    
Visibility 10 miles    
Events Rain    
T = Trace of Precipitation, MM = Missing Value Source: NWS Daily Summary

Daily Weather History Graph

Daily Weather History Graph

Search for Another Location

Airport:

Trip Planner

Search our weather history database for the weather conditions in past years. The results will help you decide how hot, cold, wet, or windy it might be!

Date:

Astronomy

Aug. 11, 2013 Rise Set
Actual Time 6:07 AM CDT 8:22 PM CDT
Civil Twilight 5:34 AM CDT 8:55 PM CDT
Nautical Twilight 4:54 AM CDT 9:35 PM CDT
Astronomical Twilight 4:08 AM CDT 10:19 PM CDT
Moon 11:12 AM CDT (8/11) 10:20 PM CDT (8/11)
Length of Visible Light 15h 20m
Length of Day
14h 15m
Waxing Crescent, 22% of the Moon is Illuminated
Aug 11
Waxing Crescent
Aug 14
First Quarter
Aug 20
Full
Aug 28
Last Quarter
Sep 5
New

Hourly Weather History & Observations

Time (CDT) Temp. Dew Point Humidity Pressure Visibility Wind Dir Wind Speed Gust Speed Precip Events Conditions
12:15 AM 56.5 °F 55.8 °F 97% 30.12 in 10.0 mi Calm Calm - N/A   Clear
12:35 AM 55.6 °F 54.5 °F 96% 30.12 in 10.0 mi Calm Calm - N/A   Clear
12:55 AM 56.1 °F 54.9 °F 96% 30.11 in 10.0 mi Calm Calm - N/A   Clear
1:15 AM 57.0 °F 54.5 °F 91% 30.11 in 10.0 mi Calm Calm - N/A   Clear
1:35 AM 55.8 °F 54.0 °F 94% 30.11 in 10.0 mi Calm Calm - N/A   Clear
1:55 AM 55.4 °F 53.2 °F 92% 30.11 in 10.0 mi Calm Calm - N/A   Clear
2:15 AM 55.2 °F 53.6 °F 94% 30.11 in 10.0 mi SE 3.5 mph - N/A   Scattered Clouds
2:35 AM 54.3 °F 53.6 °F 97% 30.11 in 10.0 mi Calm Calm - N/A   Scattered Clouds
2:55 AM 56.1 °F 53.8 °F 92% 30.12 in 10.0 mi Calm Calm - N/A   Mostly Cloudy
3:15 AM 57.4 °F 54.5 °F 90% 30.11 in 10.0 mi Calm Calm - N/A   Overcast
3:35 AM 57.4 °F 55.0 °F 92% 30.11 in 10.0 mi Calm Calm - N/A   Overcast
3:55 AM 57.7 °F 55.4 °F 92% 30.11 in 10.0 mi Calm Calm - N/A   Overcast
4:15 AM 58.1 °F 55.2 °F 90% 30.10 in 10.0 mi Calm Calm - N/A   Overcast
4:35 AM 58.3 °F 55.4 °F 90% 30.10 in 10.0 mi Calm Calm - N/A   Overcast
4:55 AM 58.6 °F 55.6 °F 90% 30.11 in 10.0 mi Calm Calm - N/A   Overcast
5:15 AM 58.3 °F 57.0 °F 96% 30.11 in 4.0 mi SSE 3.5 mph - 0.05 in Rain Rain
5:35 AM 58.3 °F 57.2 °F 96% 30.11 in 10.0 mi Calm Calm - 0.05 in   Overcast
5:55 AM 58.6 °F 58.1 °F 98% 30.10 in 10.0 mi Calm Calm - 0.05 in   Overcast
6:15 AM 59.0 °F 57.6 °F 95% 30.10 in 10.0 mi Calm Calm - N/A   Overcast
6:35 AM 58.6 °F 57.4 °F 96% 30.10 in 10.0 mi SSE 3.5 mph - N/A   Overcast
6:55 AM 59.0 °F 58.1 °F 97% 30.09 in 10.0 mi Calm Calm - N/A   Overcast
7:15 AM 59.4 °F 58.6 °F 97% 30.09 in 10.0 mi Calm Calm - N/A   Mostly Cloudy
7:35 AM 60.1 °F 59.4 °F 97% 30.08 in 10.0 mi Calm Calm - N/A   Mostly Cloudy
7:55 AM 61.2 °F 59.9 °F 96% 30.07 in 10.0 mi Calm Calm - N/A   Overcast
8:15 AM 61.7 °F 60.6 °F 96% 30.08 in 10.0 mi Calm Calm - N/A   Mostly Cloudy
8:35 AM 62.6 °F 60.6 °F 93% 30.09 in 10.0 mi Calm Calm - N/A   Mostly Cloudy
8:55 AM 63.5 °F 61.2 °F 92% 30.10 in 10.0 mi Calm Calm - N/A   Overcast
9:15 AM 63.5 °F 61.0 °F 91% 30.10 in 10.0 mi South 4.6 mph - N/A   Overcast
9:35 AM 63.9 °F 61.2 °F 91% 30.09 in 10.0 mi Calm Calm - N/A   Overcast
9:55 AM 64.6 °F 61.5 °F 90% 30.09 in 10.0 mi Calm Calm - N/A   Overcast
10:15 AM 64.8 °F 61.3 °F 89% 30.09 in 10.0 mi Calm Calm - N/A   Overcast
10:35 AM 66.4 °F 62.1 °F 86% 30.09 in 10.0 mi SSW 3.5 mph - N/A   Overcast
10:55 AM 67.1 °F 62.1 °F 84% 30.09 in 10.0 mi SW 3.5 mph - N/A   Overcast
11:15 AM 67.6 °F 62.2 °F 83% 30.08 in 10.0 mi Calm Calm - N/A   Overcast
11:35 AM 69.3 °F 60.4 °F 73% 30.09 in 10.0 mi Calm Calm - N/A   Overcast
11:55 AM 70.2 °F 59.5 °F 69% 30.08 in 10.0 mi Calm Calm - N/A   Mostly Cloudy
12:15 PM 70.7 °F 58.5 °F 65% 30.07 in 10.0 mi Calm Calm - N/A   Scattered Clouds
12:35 PM 72.3 °F 57.0 °F 59% 30.07 in 10.0 mi Calm Calm - N/A   Mostly Cloudy
12:55 PM 73.8 °F 57.4 °F 56% 30.07 in 10.0 mi Calm Calm - N/A   Scattered Clouds
1:15 PM 73.4 °F 56.3 °F 55% 30.07 in 10.0 mi Calm Calm - N/A   Mostly Cloudy
1:35 PM 74.3 °F 56.8 °F 54% 30.07 in 10.0 mi Calm Calm - N/A   Overcast
1:55 PM 74.8 °F 55.8 °F 51% 30.06 in 10.0 mi WNW 4.6 mph - N/A   Overcast
2:15 PM 74.3 °F 54.7 °F 50% 30.06 in 10.0 mi WNW 4.6 mph - N/A   Overcast
2:35 PM 75.2 °F 54.7 °F 49% 30.06 in 10.0 mi Calm Calm - N/A   Overcast
2:55 PM 75.0 °F 55.6 °F 51% 30.07 in 10.0 mi WNW 4.6 mph - N/A   Mostly Cloudy
3:15 PM 75.2 °F 55.4 °F 50% 30.06 in 10.0 mi WNW 4.6 mph - N/A   Mostly Cloudy
3:35 PM 76.8 °F 55.8 °F 48% 30.05 in 10.0 mi WSW 3.5 mph - N/A   Scattered Clouds
3:55 PM 78.3 °F 55.8 °F 46% 30.05 in 10.0 mi WNW 4.6 mph - N/A   Scattered Clouds
4:15 PM 78.8 °F 55.8 °F 45% 30.05 in 10.0 mi West 6.9 mph - N/A   Clear
4:35 PM 78.1 °F 54.5 °F 44% 30.05 in 10.0 mi SW 3.5 mph - N/A   Mostly Cloudy
4:55 PM 78.4 °F 55.2 °F 45% 30.05 in 10.0 mi Calm Calm - N/A   Mostly Cloudy
5:15 PM 78.4 °F 55.6 °F 45% 30.04 in 10.0 mi NW 4.6 mph - N/A   Mostly Cloudy
5:35 PM 76.3 °F 54.0 °F 46% 30.04 in 10.0 mi NNE 5.8 mph - N/A   Mostly Cloudy
5:55 PM 75.2 °F 55.0 °F 49% 30.04 in 10.0 mi Calm Calm - N/A   Scattered Clouds
6:15 PM 76.1 °F 54.7 °F 47% 30.03 in 10.0 mi Calm Calm - N/A   Scattered Clouds
6:35 PM 76.5 °F 54.9 °F 47% 30.03 in 10.0 mi North 3.5 mph - N/A   Clear
6:55 PM 75.6 °F 55.0 °F 49% 30.02 in 10.0 mi Calm Calm - N/A   Clear
7:15 PM 74.5 °F 55.9 °F 52% 30.02 in 10.0 mi Calm Calm - N/A   Clear
7:35 PM 73.2 °F 56.7 °F 56% 30.02 in 10.0 mi Calm Calm - N/A   Clear
7:55 PM 72.1 °F 57.7 °F 60% 30.02 in 10.0 mi Calm Calm - N/A   Clear
8:15 PM 68.5 °F 59.2 °F 72% 30.02 in 10.0 mi Calm Calm - N/A   Clear
8:35 PM 66.9 °F 59.0 °F 76% 30.02 in 10.0 mi Calm Calm - N/A   Clear
8:55 PM 65.1 °F 59.0 °F 81% 30.03 in 10.0 mi Calm Calm - N/A   Clear
9:15 PM 63.9 °F 59.5 °F 86% 30.03 in 10.0 mi Calm Calm - N/A   Clear
9:35 PM 62.8 °F 61.0 °F 94% 30.03 in 10.0 mi Calm Calm - N/A   Clear
9:55 PM 61.9 °F 59.4 °F 91% 30.04 in 10.0 mi Calm Calm - N/A   Clear
10:15 PM 61.7 °F 59.4 °F 92% 30.04 in 10.0 mi South 3.5 mph - N/A   Clear
10:35 PM 61.2 °F 59.5 °F 94% 30.03 in 10.0 mi SSE 3.5 mph - N/A   Scattered Clouds
10:55 PM 61.0 °F 59.9 °F 96% 30.04 in 10.0 mi Calm Calm - N/A   Scattered Clouds
11:35 PM 62.2 °F 59.9 °F 92% 30.04 in 10.0 mi South 3.5 mph - N/A   Scattered Clouds